Location: Dunedin
(45.8900°S, 170.5000°E)
Time: 00:36:13
(UTC+13:00)

ISS - Visible Passes

Search period start: 23 October 2019 00:00
Search period end: 02 November 2019 00:00
Orbit: 411 x 421 km, 51.6° (Epoch: 22 October)

Date Brightness Start Highest point End Pass type
(mag) Time Alt. Az. Time Alt. Az. Time Alt. Az.
23 Oct -3.6 20:57:59 10° WNW 21:01:24 79° SSW 21:04:50 10° ESE visible
23 Oct -2.0 22:35:22 10° WSW 22:38:29 31° S 22:39:40 25° SSE visible
24 Oct -0.3 00:12:33 10° WSW 00:12:34 10° WSW 00:12:34 10° WSW visible
24 Oct -2.2 21:46:34 10° W 21:49:45 36° SSW 21:52:58 10° ESE visible
24 Oct -1.5 23:23:56 10° WSW 23:26:02 26° SSW 23:26:02 26° SSW visible
25 Oct -2.6 20:57:45 10° W 21:01:03 44° SSW 21:04:21 10° ESE visible
25 Oct -2.0 22:35:14 10° WSW 22:38:19 30° S 22:39:23 24° SE visible
26 Oct -0.4 00:12:05 10° WSW 00:12:17 11° WSW 00:12:17 11° WSW visible
26 Oct -2.0 21:46:28 10° WSW 21:49:32 30° S 21:52:37 10° ESE visible
26 Oct -1.7 23:23:30 10° WSW 23:25:33 29° SW 23:25:33 29° SW visible
27 Oct -2.1 20:57:39 10° WSW 21:00:46 32° S 21:03:54 10° ESE visible
27 Oct -2.4 22:34:52 10° WSW 22:38:04 35° SSE 22:38:46 31° SE visible
28 Oct -0.5 00:11:35 10° WSW 00:11:39 10° WSW 00:11:39 10° WSW visible
28 Oct -2.1 21:46:11 10° WSW 21:49:17 31° S 21:51:58 13° ESE visible
28 Oct -1.9 23:22:57 10° WSW 23:24:51 30° SW 23:24:51 30° SW visible
29 Oct -2.0 20:57:26 10° WSW 21:00:30 30° S 21:03:34 10° ESE visible
29 Oct -3.3 22:34:19 10° WSW 22:37:42 54° SSE 22:38:01 51° SE visible
30 Oct -2.7 21:45:40 10° WSW 21:48:57 41° SSE 21:51:11 18° E visible
30 Oct -1.7 23:22:27 10° WSW 23:24:04 24° W 23:24:04 24° W visible
31 Oct -2.4 20:57:00 10° WSW 21:00:10 34° SSE 21:03:20 10° E visible
31 Oct -3.9 22:33:43 10° WSW 22:37:08 77° NNW 22:37:14 76° N visible
01 Nov -3.6 21:45:02 10° WSW 21:48:27 72° SSE 21:50:25 23° ENE visible
01 Nov -1.2 23:22:17 10° W 23:23:18 15° W 23:23:18 15° W visible
